When you browse on this site, cookies collect data to enhance your experience and personalize the content and advertising you see.
Visit our Privacy Policy to learn more. By continuing to use the site, you agree to this use of cookies and data.
  • In Latvia
  • List of Countries
  • For 7 days
  • Water Temperature
  • Weather Map
  • Weather Widgets
  • user-avatar
    Login

    Hourly Weather Bessonovo

    Today, 23 February, Sunday

    Time Temperature Precipitation Wind Pressure Humidity
    00:00 -2°C° 0 mm 7 mps 750 mmHg 85%
    01:00 -2°C° 0 mm 8 mps 749 mmHg 84%
    02:00 -4°C° 0 mm 8 mps 748 mmHg 83%
    03:00 -4°C° 0 mm 8 mps 746 mmHg 81%
    04:00 -4°C° 0.1 mm 8 mps 745 mmHg 84%
    05:00 -4°C° 0.1 mm 9 mps 744 mmHg 87%
    06:00 -4°C° 0.1 mm 9 mps 743 mmHg 90%
    07:00 -4°C° 1.1 mm 9 mps 742 mmHg 92%
    08:00 -4°C° 1.1 mm 9 mps 741 mmHg 94%
    09:00 -4°C° 0 mm 9 mps 740 mmHg 94%
    10:00 -4°C° 0.8 mm 8 mps 739 mmHg 95%
    11:00 -4°C° 0.8 mm 8 mps 738 mmHg 96%
    12:00 -4°C° 0.8 mm 8 mps 737 mmHg 97%
    13:00 -2°C° 0.5 mm 7 mps 737 mmHg 97%
    14:00 -2°C° 0.5 mm 6 mps 737 mmHg 97%
    15:00 -1°C° 0 mm 5 mps 737 mmHg 96%
    16:00 -1°C° 0.1 mm 4 mps 737 mmHg 94%
    17:00 -1°C° 0.1 mm 4 mps 737 mmHg 93%
    18:00 -1°C° 0.1 mm 4 mps 736 mmHg 91%
    19:00 -1°C° 0 mm 4 mps 736 mmHg 90%
    20:00 -2°C° 0 mm 4 mps 736 mmHg 89%
    21:00 -2°C° 0 mm 4 mps 736 mmHg 89%
    22:00 -2°C° 0 mm 4 mps 736 mmHg 89%
    23:00 -3°C° 0 mm 4 mps 736 mmHg 89%

    Tomorrow, 24 February, Monday

    Time Temperature Precipitation Wind Pressure Humidity
    00:00 -3°C° 0 mm 4 mps 735 mmHg 89%
    01:00 -2°C° 0 mm 4 mps 735 mmHg 89%
    02:00 -2°C° 0 mm 4 mps 735 mmHg 89%
    03:00 -1°C° 0 mm 4 mps 735 mmHg 88%
    04:00 -2°C° 0 mm 4 mps 735 mmHg 89%
    05:00 -2°C° 0 mm 4 mps 735 mmHg 90%
    06:00 -2°C° 0 mm 4 mps 734 mmHg 90%
    07:00 -2°C° 0 mm 4 mps 735 mmHg 90%
    08:00 -2°C° 0 mm 4 mps 735 mmHg 90%
    09:00 -3°C° 0 mm 4 mps 735 mmHg 90%
    10:00 -2°C° 0 mm 4 mps 735 mmHg 90%
    11:00 -1°C° 0 mm 4 mps 735 mmHg 89%
    12:00 -1°C° 0 mm 4 mps 735 mmHg 88%
    13:00 0°C° 0 mm 4 mps 735 mmHg 87%
    14:00 +1°C° 0 mm 3 mps 736 mmHg 85%
    15:00 +1°C° 0 mm 3 mps 736 mmHg 84%
    16:00 +2°C° 0 mm 2 mps 736 mmHg 85%
    17:00 +1°C° 0 mm 2 mps 736 mmHg 87%
    18:00 +1°C° 0 mm 2 mps 736 mmHg 88%
    19:00 +1°C° 0 mm 2 mps 737 mmHg 87%
    20:00 -1°C° 0 mm 2 mps 737 mmHg 86%
    21:00 -1°C° 0 mm 2 mps 737 mmHg 86%
    22:00 -2°C° 0 mm 2 mps 738 mmHg 88%
    23:00 -2°C° 0 mm 2 mps 738 mmHg 90%

    Day after tomorrow, 25 February, Tuesday

    Time Temperature Precipitation Wind Pressure Humidity
    00:00 -2°C° 0 mm 2 mps 738 mmHg 92%
    01:00 -2°C° 0 mm 3 mps 738 mmHg 91%
    02:00 -4°C° 0 mm 3 mps 739 mmHg 90%
    03:00 -4°C° 0 mm 3 mps 739 mmHg 90%
    04:00 -4°C° 0 mm 3 mps 739 mmHg 89%
    05:00 -5°C° 0 mm 3 mps 739 mmHg 87%
    06:00 -5°C° 0 mm 3 mps 739 mmHg 86%
    07:00 -5°C° 0 mm 4 mps 739 mmHg 84%
    08:00 -4°C° 0 mm 4 mps 740 mmHg 82%
    09:00 -5°C° 0 mm 5 mps 740 mmHg 80%
    10:00 -4°C° 0 mm 5 mps 740 mmHg 76%
    11:00 -4°C° 0 mm 5 mps 740 mmHg 71%
    12:00 -2°C° 0 mm 5 mps 740 mmHg 67%
    13:00 -2°C° 0 mm 5 mps 740 mmHg 66%
    14:00 -2°C° 0 mm 5 mps 740 mmHg 65%
    15:00 -1°C° 0 mm 4 mps 741 mmHg 64%
    16:00 -2°C° 0 mm 4 mps 741 mmHg 68%
    17:00 -2°C° 0 mm 3 mps 741 mmHg 72%
    18:00 -3°C° 0 mm 2 mps 741 mmHg 75%
    19:00 -3°C° 0 mm 2 mps 741 mmHg 77%
    20:00 -3°C° 0 mm 2 mps 741 mmHg 78%
    21:00 -3°C° 0 mm 2 mps 741 mmHg 80%
    22:00 -4°C° 0 mm 2 mps 741 mmHg 80%
    23:00 -5°C° 0 mm 3 mps 741 mmHg 79%

    26 February, Wednesday

    Time Temperature Precipitation Wind Pressure Humidity
    00:00 -5°C° 0 mm 3 mps 740 mmHg 79%
    01:00 -5°C° 0 mm 3 mps 740 mmHg 80%
    02:00 -5°C° 0 mm 4 mps 739 mmHg 81%
    03:00 -4°C° 0 mm 4 mps 739 mmHg 81%
    04:00 -5°C° 0.1 mm 5 mps 738 mmHg 85%
    05:00 -5°C° 0.1 mm 5 mps 737 mmHg 88%
    06:00 -5°C° 0.1 mm 6 mps 736 mmHg 92%
    07:00 -4°C° 0.2 mm 6 mps 736 mmHg 93%
    08:00 -3°C° 0.2 mm 6 mps 735 mmHg 94%
    09:00 -2°C° 0.2 mm 6 mps 735 mmHg 95%
    10:00 -2°C° 0 mm 6 mps 735 mmHg 94%
    11:00 -1°C° 0 mm 6 mps 735 mmHg 92%
    12:00 +1°C° 0 mm 6 mps 734 mmHg 90%
    13:00 +1°C° 0.5 mm 5 mps 734 mmHg 92%
    14:00 +1°C° 0.5 mm 5 mps 734 mmHg 95%
    15:00 0°C° 0.5 mm 5 mps 734 mmHg 97%
    16:00 0°C° 0.5 mm 4 mps 734 mmHg 97%
    17:00 0°C° 0.5 mm 4 mps 734 mmHg 97%
    18:00 +1°C° 0.5 mm 3 mps 734 mmHg 97%
    19:00 +1°C° 0 mm 3 mps 734 mmHg 96%
    20:00 +1°C° 0 mm 3 mps 735 mmHg 94%
    21:00 +1°C° 0 mm 3 mps 735 mmHg 92%
    22:00 0°C° 0 mm 3 mps 736 mmHg 92%
    23:00 0°C° 0 mm 3 mps 736 mmHg 92%

    27 February, Thursday

    Time Temperature Precipitation Wind Pressure Humidity
    00:00 -1°C° 0 mm 3 mps 737 mmHg 91%
    01:00 -1°C° 0 mm 3 mps 737 mmHg 92%
    02:00 -1°C° 0 mm 3 mps 737 mmHg 93%
    03:00 -1°C° 0 mm 3 mps 738 mmHg 94%
    04:00 -1°C° 0 mm 3 mps 738 mmHg 94%
    05:00 -1°C° 0 mm 3 mps 738 mmHg 94%
    06:00 -1°C° 0 mm 3 mps 738 mmHg 94%
    07:00 -1°C° 0 mm 3 mps 738 mmHg 93%
    08:00 -1°C° 0 mm 3 mps 739 mmHg 92%
    09:00 0°C° 0 mm 3 mps 739 mmHg 91%
    10:00 0°C° 0 mm 3 mps 739 mmHg 89%
    11:00 +1°C° 0 mm 3 mps 739 mmHg 87%
    12:00 +2°C° 0 mm 3 mps 739 mmHg 85%
    13:00 +3°C° 0 mm 2 mps 739 mmHg 85%
    14:00 +3°C° 0 mm 2 mps 739 mmHg 86%
    15:00 +4°C° 0 mm 2 mps 739 mmHg 86%
    16:00 +3°C° 0 mm 2 mps 739 mmHg 89%
    17:00 +2°C° 0 mm 2 mps 739 mmHg 93%
    18:00 +1°C° 0 mm 2 mps 739 mmHg 96%
    19:00 +1°C° 0.8 mm 2 mps 738 mmHg 97%
    20:00 +2°C° 0.8 mm 2 mps 738 mmHg 97%
    21:00 +1°C° 0.8 mm 3 mps 737 mmHg 98%
    22:00 +1°C° 1.5 mm 3 mps 736 mmHg 98%
    23:00 +1°C° 1.5 mm 3 mps 735 mmHg 98%

    28 February, Friday

    Time Temperature Precipitation Wind Pressure Humidity
    00:00 +1°C° 1.5 mm 3 mps 735 mmHg 98%
    01:00 +1°C° 0.3 mm 3 mps 734 mmHg 98%
    02:00 +1°C° 0.3 mm 3 mps 734 mmHg 98%
    03:00 +1°C° 0.3 mm 3 mps 734 mmHg 97%
    04:00 +2°C° 0 mm 2 mps 734 mmHg 97%
    05:00 +2°C° 0 mm 2 mps 734 mmHg 98%
    06:00 +1°C° 0 mm 2 mps 734 mmHg 98%
    07:00 0°C° 0.1 mm 3 mps 734 mmHg 97%
    08:00 0°C° 0.1 mm 3 mps 734 mmHg 96%
    09:00 0°C° 0.1 mm 3 mps 735 mmHg 95%
    10:00 0°C° 0.2 mm 3 mps 735 mmHg 94%
    11:00 -1°C° 0.2 mm 4 mps 735 mmHg 92%
    12:00 -1°C° 0.2 mm 4 mps 735 mmHg 91%
    13:00 -2°C° 0.7 mm 4 mps 735 mmHg 92%
    14:00 -2°C° 0.7 mm 5 mps 734 mmHg 94%
    15:00 -2°C° 0.7 mm 5 mps 734 mmHg 95%
    16:00 -4°C° 0.9 mm 5 mps 734 mmHg 94%
    17:00 -4°C° 0.9 mm 5 mps 735 mmHg 94%
    18:00 -5°C° 0.9 mm 6 mps 735 mmHg 93%
    19:00 -5°C° 0.2 mm 5 mps 735 mmHg 88%
    20:00 -5°C° 0.2 mm 5 mps 736 mmHg 83%
    21:00 -4°C° 0.2 mm 4 mps 737 mmHg 77%
    22:00 -5°C° 0 mm 4 mps 738 mmHg 78%
    23:00 -7°C° 0 mm 4 mps 738 mmHg 79%
    Show more